Simultaneous Nadir Overpasses (SNOs) Predictions

Prediction of SNOs between GOES-15 and TERRA Satellite Orbit:

Table of predicted SNOs for the next 14.0 days since TLE Epoch: 5/21/2022
Index Date Time (GOES-15) GOES-15 Lat,Lon TERRA Lat,Lon Distance(km) Time Diff (sec)
1 05/21/2022 18:49:54 -0.20,-127.67 -0.17,-127.92 27.03 80
2 05/23/2022 18:37:37 -0.20,-127.76 -0.82,-124.95 318.91 80
3 05/24/2022 07:01:39 0.19,-127.75 -0.33,-130.14 272.18 80
4 05/26/2022 06:46:42 0.20,-127.83 0.34,-127.18 73.66 80
5 05/28/2022 06:34:24 0.20,-127.90 0.96,-124.21 419.29 80
6 05/28/2022 18:58:18 -0.19,-127.95 0.12,-129.37 161.44 80
7 05/30/2022 18:43:20 -0.20,-128.02 -0.53,-126.40 183.61 80
8 05/31/2022 07:07:22 0.18,-128.01 -0.60,-131.59 407.15 80
9 06/02/2022 06:55:04 0.19,-128.07 0.07,-128.62 62.81 80
